TimeCDT,TemperatureF,Dew PointF,Humidity,Sea Level PressureIn,VisibilityMPH,Wind Direction,Wind SpeedMPH,Gust SpeedMPH,PrecipitationIn,Events,Conditions,WindDirDegrees,DateUTC
12:13 AM,33.8,30.2,87,30.05,10.0,Calm,Calm,-,N/A,,Overcast,0,2013-04-09 05:13:00
12:32 AM,33.8,30.2,87,30.05,10.0,Calm,Calm,-,N/A,,Overcast,0,2013-04-09 05:32:00
12:53 AM,33.8,30.2,87,30.06,10.0,Calm,Calm,-,N/A,,Overcast,0,2013-04-09 05:53:00
1:12 AM,33.8,30.2,87,30.07,10.0,Calm,Calm,-,N/A,,Overcast,0,2013-04-09 06:12:00
1:33 AM,32.0,30.2,93,30.07,10.0,Calm,Calm,-,N/A,,Overcast,0,2013-04-09 06:33:00
1:53 AM,32.0,30.2,93,30.08,10.0,Calm,Calm,-,N/A,,Overcast,0,2013-04-09 06:53:00
2:13 AM,32.0,30.2,93,30.07,10.0,Calm,Calm,-,N/A,,Overcast,0,2013-04-09 07:13:00
2:33 AM,32.0,28.4,87,30.06,10.0,NNW,5.8,-,N/A,,Overcast,330,2013-04-09 07:33:00
2:53 AM,32.0,28.4,87,30.04,10.0,NNW,5.8,-,N/A,,Overcast,330,2013-04-09 07:53:00
3:13 AM,30.2,26.6,86,30.03,10.0,NNW,5.8,-,N/A,,Mostly Cloudy,330,2013-04-09 08:13:00
3:33 AM,30.2,24.8,80,30.08,10.0,West,3.5,-,N/A,,Mostly Cloudy,280,2013-04-09 08:33:00
3:53 AM,30.2,23.0,75,30.09,10.0,WNW,3.5,-,N/A,,Scattered Clouds,300,2013-04-09 08:53:00
4:13 AM,28.4,23.0,80,30.07,10.0,NW,6.9,-,N/A,,Clear,320,2013-04-09 09:13:00
4:33 AM,28.4,21.2,74,30.07,10.0,NW,5.8,-,N/A,,Mostly Cloudy,320,2013-04-09 09:33:00
4:53 AM,28.4,21.2,74,30.06,10.0,NW,8.1,-,N/A,,Mostly Cloudy,320,2013-04-09 09:53:00
5:13 AM,28.4,21.2,74,30.06,10.0,NW,6.9,-,N/A,,Scattered Clouds,320,2013-04-09 10:13:00
5:32 AM,26.6,21.2,80,30.10,10.0,West,4.6,-,N/A,,Scattered Clouds,280,2013-04-09 10:32:00
5:53 AM,26.6,21.2,80,30.09,10.0,NW,5.8,-,N/A,,Mostly Cloudy,310,2013-04-09 10:53:00
6:13 AM,26.6,21.2,80,30.10,10.0,NW,3.5,-,N/A,,Mostly Cloudy,320,2013-04-09 11:13:00
6:32 AM,26.6,19.4,74,30.12,10.0,WNW,4.6,-,N/A,,Mostly Cloudy,300,2013-04-09 11:32:00
6:53 AM,26.6,19.4,74,30.14,10.0,NNW,6.9,-,N/A,,Overcast,330,2013-04-09 11:53:00
7:13 AM,26.6,19.4,74,30.14,10.0,NW,5.8,-,N/A,,Overcast,320,2013-04-09 12:13:00
7:32 AM,26.6,19.4,74,30.14,10.0,NW,6.9,-,N/A,,Overcast,320,2013-04-09 12:32:00
7:53 AM,26.6,19.4,74,30.15,10.0,NNW,4.6,-,N/A,,Overcast,340,2013-04-09 12:53:00
8:13 AM,26.6,19.4,74,30.15,10.0,NW,9.2,-,N/A,,Overcast,320,2013-04-09 13:13:00
8:32 AM,26.6,21.2,80,30.16,10.0,NW,9.2,-,N/A,,Mostly Cloudy,320,2013-04-09 13:32:00
8:53 AM,28.4,21.2,74,30.16,10.0,NNW,8.1,-,N/A,,Overcast,340,2013-04-09 13:53:00
9:12 AM,28.4,21.2,74,30.16,10.0,NNW,5.8,-,N/A,,Overcast,340,2013-04-09 14:12:00
9:33 AM,28.4,21.2,74,30.16,10.0,North,6.9,-,N/A,,Overcast,360,2013-04-09 14:33:00
9:53 AM,28.4,21.2,74,30.16,10.0,NNE,6.9,-,N/A,,Overcast,20,2013-04-09 14:53:00
10:12 AM,30.2,21.2,69,30.16,10.0,NNE,6.9,-,N/A,,Overcast,30,2013-04-09 15:12:00
10:33 AM,30.2,21.2,69,30.16,10.0,North,9.2,-,N/A,,Overcast,10,2013-04-09 15:33:00
10:52 AM,30.2,21.2,69,30.15,10.0,North,6.9,-,N/A,,Overcast,350,2013-04-09 15:52:00
11:13 AM,30.2,21.2,69,30.16,10.0,NNW,6.9,-,N/A,,Overcast,340,2013-04-09 16:13:00
11:33 AM,32.0,21.2,64,30.17,10.0,NNE,6.9,-,N/A,,Overcast,30,2013-04-09 16:33:00
11:52 AM,32.0,21.2,64,30.18,10.0,North,4.6,-,N/A,,Overcast,360,2013-04-09 16:52:00
12:13 PM,32.0,21.2,64,30.18,10.0,North,5.8,17.3,N/A,,Overcast,360,2013-04-09 17:13:00
12:33 PM,33.8,21.2,60,30.18,10.0,North,5.8,-,N/A,,Unknown,10,2013-04-09 17:33:00
12:53 PM,33.8,19.4,56,30.18,10.0,NE,6.9,-,N/A,,Overcast,40,2013-04-09 17:53:00
1:12 PM,35.6,19.4,52,30.19,10.0,NNE,8.1,-,N/A,,Overcast,20,2013-04-09 18:12:00
1:33 PM,35.6,17.6,48,30.19,10.0,North,4.6,-,N/A,,Mostly Cloudy,360,2013-04-09 18:33:00
1:53 PM,35.6,17.6,48,30.18,10.0,NNE,6.9,-,N/A,,Scattered Clouds,30,2013-04-09 18:53:00
2:12 PM,35.6,17.6,48,30.18,10.0,NNE,10.4,16.1,N/A,,Scattered Clouds,30,2013-04-09 19:12:00
2:33 PM,35.6,17.6,48,30.17,10.0,NNE,5.8,-,N/A,,Mostly Cloudy,20,2013-04-09 19:33:00
2:53 PM,37.4,15.8,41,30.16,10.0,North,6.9,-,N/A,,Scattered Clouds,10,2013-04-09 19:53:00
3:12 PM,37.4,15.8,41,30.16,10.0,ENE,8.1,16.1,N/A,,Clear,60,2013-04-09 20:12:00
3:33 PM,37.4,15.8,41,30.17,10.0,North,5.8,-,N/A,,Clear,10,2013-04-09 20:33:00
3:53 PM,37.4,14.0,38,30.17,10.0,North,4.6,-,N/A,,Clear,10,2013-04-09 20:53:00
4:12 PM,37.4,15.8,41,30.17,10.0,NNE,8.1,-,N/A,,Clear,30,2013-04-09 21:12:00
4:33 PM,37.4,14.0,38,30.17,10.0,NE,5.8,-,N/A,,Clear,40,2013-04-09 21:33:00
4:53 PM,37.4,14.0,38,30.16,10.0,NE,9.2,-,N/A,,Clear,50,2013-04-09 21:53:00
5:12 PM,37.4,14.0,38,30.15,10.0,North,4.6,-,N/A,,Clear,10,2013-04-09 22:12:00
5:33 PM,37.4,12.2,36,30.15,10.0,NNE,9.2,-,N/A,,Clear,20,2013-04-09 22:33:00
5:53 PM,37.4,12.2,36,30.16,10.0,NNE,4.6,-,N/A,,Clear,20,2013-04-09 22:53:00
6:12 PM,37.4,12.2,36,30.18,10.0,North,3.5,-,N/A,,Clear,350,2013-04-09 23:12:00
6:33 PM,37.4,12.2,36,30.19,10.0,North,4.6,-,N/A,,Clear,10,2013-04-09 23:33:00
6:53 PM,35.6,12.2,38,30.21,10.0,North,4.6,-,N/A,,Clear,10,2013-04-09 23:53:00
7:12 PM,35.6,12.2,38,30.20,10.0,North,5.8,-,N/A,,Clear,10,2013-04-10 00:12:00
7:33 PM,35.6,12.2,38,30.20,10.0,North,3.5,-,N/A,,Clear,360,2013-04-10 00:33:00
7:53 PM,33.8,12.2,41,30.19,10.0,North,3.5,-,N/A,,Clear,10,2013-04-10 00:53:00
8:12 PM,33.8,14.0,44,30.19,10.0,North,3.5,-,N/A,,Clear,10,2013-04-10 01:12:00
8:33 PM,32.0,15.8,51,30.19,10.0,Calm,Calm,-,N/A,,Clear,0,2013-04-10 01:33:00
8:53 PM,30.2,15.8,55,30.18,10.0,Calm,Calm,-,N/A,,Clear,0,2013-04-10 01:53:00
9:12 PM,30.2,15.8,55,30.19,10.0,Calm,Calm,-,N/A,,Clear,0,2013-04-10 02:12:00
9:33 PM,30.2,15.8,55,30.20,10.0,Calm,Calm,-,N/A,,Clear,0,2013-04-10 02:33:00
9:53 PM,30.2,15.8,55,30.20,10.0,Calm,Calm,-,N/A,,Clear,0,2013-04-10 02:53:00
10:12 PM,28.4,15.8,59,30.20,10.0,Calm,Calm,-,N/A,,Clear,0,2013-04-10 03:12:00
10:33 PM,28.4,15.8,59,30.19,10.0,Calm,Calm,-,N/A,,Clear,0,2013-04-10 03:33:00
10:53 PM,28.4,14.0,55,30.19,10.0,Calm,Calm,-,N/A,,Clear,0,2013-04-10 03:53:00
11:12 PM,28.4,14.0,55,30.19,10.0,Calm,Calm,-,N/A,,Clear,0,2013-04-10 04:12:00
11:33 PM,26.6,12.2,55,30.19,10.0,NNE,3.5,-,N/A,,Clear,30,2013-04-10 04:33:00
11:51 PM,26.6,12.2,55,30.20,10.0,Calm,Calm,-,N/A,,Clear,0,2013-04-10 04:51:00